Flag for Germany Weather past 2 weeks in Falkensee, Brandenburg, Germany

Now
32 °F

Clear.


Feels Like: 27 °F
Forecast: 32 / 45 °F
Wind: 5 mph from Southeast

Location: Berlin-Tegel

Current Time: Feb 27, 2015 at 5:44:41 AM

Latest Report: Feb 27, 2015 at 5:20 AM


Visibility: 10 mi

Pressure: 29.89 "Hg

Humidity: 87%

Dew point: 28 °F

Location of FalkenseeLocation

Historic Weather in Falkensee — Graph

°F

Falkensee temperature yesterday

Maximum temperature yesterday: 48 °F (at 12:50 PM)
Minimum temperature yesterday: 27 °F (at 3:50 AM)
Average temperature yesterday: 39 °F

Past Weeks' High & Low Weather Summary

 TemperatureHumidityPressure
High52 °F (Feb 21, 11:50 AM)100% (Feb 12, 9:20 PM)30.72 "Hg (Feb 12, 9:20 PM)
Low25 °F (Feb 12, 11:20 PM)40% (Feb 26, 2:50 PM)29.39 "Hg (Feb 21, 11:50 AM)
Average37 °F78%30.03 "Hg
* Reported Feb 12 4:20 AM — Feb 27 4:20 AM, Falkensee, Weather by CustomWeather, © 2015

Note: Actual official high and low records may vary slightly from our data, if they occured in-between our weather recording intervals... More about our weather records

Advertising

Falkensee weather history for previous 24 hours

 ConditionsComfort  
Time TempWeatherWind HumidityBarometerVisibility
4:20 AM
Fri, Feb 27
34 °FClear.3 mph75%29.92 "Hg10 mi
3:50 AM34 °FClear.2 mph81%29.92 "Hg10 mi
3:20 AM34 °FClear.5 mph81%29.92 "Hg10 mi
2:50 AM34 °FClear.6 mph81%29.92 "Hg10 mi
2:20 AM36 °FClear.6 mph75%29.95 "Hg10 mi
1:50 AM36 °FClear.6 mph75%29.95 "Hg10 mi
1:20 AM37 °FClear.7 mph75%29.95 "Hg10 mi
12:50 AM37 °FClear.9 mph75%29.98 "Hg10 mi
12:20 AM37 °FClear.9 mph70%29.98 "Hg10 mi
11:50 PM
Thu, Feb 26
39 °FClear.8 mph70%29.98 "Hg10 mi
11:20 PM39 °FClear.6 mph70%30.01 "Hg10 mi
10:50 PM39 °FClear.7 mph65%30.01 "Hg10 mi
10:20 PM39 °FClear.7 mph65%30.01 "Hg10 mi
9:50 PM39 °FClear.8 mph65%30.01 "Hg10 mi
9:20 PM39 °FClear.9 mph65%30.04 "Hg10 mi
8:50 PM41 °FClear.8 mph61%30.04 "Hg10 mi
8:20 PM41 °FClear.8 mph61%30.04 "Hg10 mi
7:50 PM41 °FClear.9 mph57%30.04 "Hg10 mi
7:20 PM43 °FClear.8 mph57%30.07 "Hg10 mi
6:50 PM43 °FClear.8 mph57%30.07 "Hg10 mi
6:20 PM43 °FClear.8 mph53%30.07 "Hg10 mi
5:50 PM45 °FClear.6 mph49%30.07 "Hg10 mi
5:20 PM45 °FSunny.8 mph49%30.07 "Hg10 mi
4:50 PM46 °FSunny.10 mph43%30.09 "Hg10 mi
4:20 PM48 °FSunny.10 mph43%30.09 "Hg10 mi
3:50 PM48 °FSunny.10 mph40%30.09 "Hg10 mi
3:20 PM48 °FSunny.10 mph40%30.09 "Hg10 mi
2:50 PM48 °FPassing clouds.7 mph40%30.12 "HgN/A
2:20 PM48 °FPassing clouds.10 mph43%30.12 "HgN/A
1:50 PM48 °FPassing clouds.9 mph54%30.12 "HgN/A
1:20 PM48 °FPassing clouds.13 mph50%30.15 "HgN/A
12:50 PM48 °FPassing clouds.9 mph46%30.15 "HgN/A
12:20 PM46 °FSunny.9 mph57%30.18 "Hg10 mi
11:50 AM46 °FSunny.9 mph53%30.18 "Hg10 mi
11:20 AM45 °FSunny.7 mph61%30.18 "Hg10 mi
10:50 AM45 °FSunny.7 mph61%30.18 "Hg10 mi
10:20 AM43 °FSunny.8 mph66%30.21 "Hg10 mi
9:50 AM41 °FSunny.5 mph70%30.21 "Hg10 mi
9:20 AM39 °FSunny.5 mph75%30.21 "Hg10 mi
8:50 AM37 °FSunny.3 mph81%30.21 "Hg10 mi
8:20 AM32 °FSunny.2 mph93%30.21 "Hg10 mi
7:50 AM30 °FSunny.1 mph100%30.21 "Hg10 mi
6:50 AM30 °FLight fog.2 mph93%30.18 "HgN/A
6:20 AM28 °FFog.1 mph93%30.18 "HgN/A
5:50 AM28 °FFog.1 mph100%30.18 "HgN/A
Weather by CustomWeather, © 2015

See weather overviewHow to use our weather pages